Location: Newark
(40.2000°N, 15.6833°E)
Time: 04:51:53
(UTC+00:00)

LightSail 2 - Visible Passes

Search period start: 07 December 2019 00:00
Search period end: 17 December 2019 00:00
Orbit: 696 x 730 km, 24.0° (Epoch: 06 December)

Date Brightness Start Highest point End Pass type
(mag) Time Alt. Az. Time Alt. Az. Time Alt. Az.
07 Dec 7.7 17:16:40 10° SSW 17:18:06 11° S 17:19:33 10° S visible
08 Dec 7.7 16:18:17 10° SSW 16:20:16 12° S 16:22:17 10° SSE visible
10 Dec 8.0 16:08:08 10° SSW 16:09:11 11° S 16:10:15 10° S visible
